When you browse on this site, cookies collect data to enhance your experience and personalize the content and advertising you see.
Visit our Privacy Policy to learn more. By continuing to use the site, you agree to this use of cookies and data.
  • In Lithuania
  • List of Countries
  • For 7 days
  • Water Temperature
  • Weather Map
  • Weather Widgets
  • user-avatar
    Login

    Hourly Weather Armawir

    Today, 22 January, Wednesday

    Time Temperature Precipitation Wind Pressure Humidity
    00:00 -2°C° 0 mm 1 mps 692 mmHg 58%
    01:00 -3°C° 0 mm 1 mps 692 mmHg 59%
    02:00 -3°C° 0 mm 1 mps 692 mmHg 59%
    03:00 -3°C° 0 mm 1 mps 692 mmHg 58%
    04:00 -3°C° 0 mm 1 mps 692 mmHg 58%
    05:00 -6°C° 0 mm 2 mps 691 mmHg 58%
    06:00 -6°C° 0 mm 2 mps 691 mmHg 57%
    07:00 -5°C° 0 mm 2 mps 692 mmHg 54%
    08:00 -4°C° 0 mm 2 mps 692 mmHg 50%
    09:00 -1°C° 0 mm 1 mps 692 mmHg 44%
    10:00 -2°C° 0 mm 2 mps 692 mmHg 42%
    11:00 -1°C° 0 mm 2 mps 691 mmHg 40%
    12:00 +2°C° 0 mm 2 mps 691 mmHg 38%
    13:00 +2°C° 0 mm 2 mps 690 mmHg 37%
    14:00 +2°C° 0 mm 2 mps 690 mmHg 37%
    15:00 +4°C° 0 mm 1 mps 690 mmHg 36%
    16:00 +3°C° 0 mm 1 mps 690 mmHg 40%
    17:00 +2°C° 0 mm 1 mps 690 mmHg 44%
    18:00 +1°C° 0 mm 1 mps 690 mmHg 48%
    19:00 0°C° 0 mm 1 mps 690 mmHg 50%
    20:00 0°C° 0 mm 1 mps 689 mmHg 52%
    21:00 -1°C° 0 mm 1 mps 689 mmHg 54%
    22:00 -1°C° 0 mm 1 mps 689 mmHg 54%
    23:00 -2°C° 0 mm 1 mps 688 mmHg 54%

    Tomorrow, 23 January, Thursday

    Time Temperature Precipitation Wind Pressure Humidity
    00:00 -2°C° 0 mm 1 mps 688 mmHg 54%
    01:00 -3°C° 0 mm 1 mps 687 mmHg 54%
    02:00 -3°C° 0 mm 1 mps 687 mmHg 55%
    03:00 -3°C° 0 mm 1 mps 686 mmHg 55%
    04:00 -4°C° 0 mm 1 mps 686 mmHg 56%
    05:00 -4°C° 0 mm 1 mps 686 mmHg 57%
    06:00 -4°C° 0 mm 1 mps 685 mmHg 58%
    07:00 -3°C° 0 mm 1 mps 685 mmHg 55%
    08:00 -3°C° 0 mm 1 mps 685 mmHg 53%
    09:00 -2°C° 0 mm 1 mps 685 mmHg 50%
    10:00 -1°C° 0 mm 1 mps 685 mmHg 47%
    11:00 0°C° 0 mm 1 mps 684 mmHg 45%
    12:00 +1°C° 0 mm 1 mps 683 mmHg 42%
    13:00 +2°C° 0 mm 1 mps 683 mmHg 42%
    14:00 +2°C° 0 mm 1 mps 683 mmHg 41%
    15:00 +2°C° 0 mm 1 mps 682 mmHg 40%
    16:00 +2°C° 0.1 mm 1 mps 682 mmHg 49%
    17:00 +1°C° 0.1 mm 1 mps 683 mmHg 57%
    18:00 -2°C° 0.1 mm 2 mps 683 mmHg 65%
    19:00 0°C° 0 mm 1 mps 683 mmHg 69%
    20:00 0°C° 0 mm 1 mps 683 mmHg 73%
    21:00 0°C° 0 mm 1 mps 683 mmHg 76%
    22:00 -1°C° 0.3 mm 1 mps 683 mmHg 81%
    23:00 -1°C° 0.3 mm 1 mps 683 mmHg 86%

    Day after tomorrow, 24 January, Friday

    Time Temperature Precipitation Wind Pressure Humidity
    00:00 -2°C° 0.3 mm 0 mps 683 mmHg 91%
    01:00 -1°C° 0.1 mm 1 mps 683 mmHg 90%
    02:00 -1°C° 0.1 mm 1 mps 684 mmHg 89%
    03:00 -2°C° 0.1 mm 1 mps 684 mmHg 88%
    04:00 -2°C° 0 mm 1 mps 684 mmHg 85%
    05:00 -2°C° 0 mm 1 mps 685 mmHg 81%
    06:00 -2°C° 0 mm 1 mps 685 mmHg 78%
    07:00 -1°C° 0 mm 1 mps 686 mmHg 71%
    08:00 -3°C° 0 mm 2 mps 686 mmHg 64%
    09:00 -2°C° 0 mm 2 mps 687 mmHg 57%
    10:00 -2°C° 0 mm 3 mps 687 mmHg 50%
    11:00 -1°C° 0 mm 3 mps 687 mmHg 44%
    12:00 -1°C° 0 mm 4 mps 687 mmHg 38%
    13:00 -1°C° 0 mm 4 mps 687 mmHg 37%
    14:00 -1°C° 0 mm 5 mps 687 mmHg 37%
    15:00 -1°C° 0 mm 5 mps 687 mmHg 36%
    16:00 -2°C° 0 mm 4 mps 688 mmHg 39%
    17:00 -4°C° 0 mm 4 mps 689 mmHg 43%
    18:00 -5°C° 0 mm 3 mps 689 mmHg 46%
    19:00 -6°C° 0 mm 3 mps 690 mmHg 46%
    20:00 -6°C° 0 mm 3 mps 691 mmHg 46%
    21:00 -7°C° 0 mm 3 mps 692 mmHg 46%
    22:00 -7°C° 0 mm 3 mps 692 mmHg 46%
    23:00 -7°C° 0 mm 3 mps 693 mmHg 46%

    25 January, Saturday

    Time Temperature Precipitation Wind Pressure Humidity
    00:00 -8°C° 0 mm 3 mps 693 mmHg 46%
    01:00 -8°C° 0 mm 3 mps 694 mmHg 46%
    02:00 -9°C° 0 mm 3 mps 694 mmHg 47%
    03:00 -9°C° 0 mm 3 mps 694 mmHg 47%
    04:00 -9°C° 0 mm 3 mps 694 mmHg 48%
    05:00 -9°C° 0 mm 2 mps 694 mmHg 48%
    06:00 -9°C° 0 mm 2 mps 694 mmHg 49%
    07:00 -8°C° 0 mm 2 mps 695 mmHg 46%
    08:00 -8°C° 0 mm 2 mps 695 mmHg 44%
    09:00 -7°C° 0 mm 2 mps 695 mmHg 41%
    10:00 -6°C° 0 mm 2 mps 695 mmHg 39%
    11:00 -5°C° 0 mm 2 mps 694 mmHg 37%
    12:00 -2°C° 0 mm 1 mps 694 mmHg 36%
    13:00 -1°C° 0 mm 1 mps 694 mmHg 35%
    14:00 -1°C° 0 mm 1 mps 693 mmHg 35%
    15:00 0°C° 0 mm 1 mps 693 mmHg 35%
    16:00 -2°C° 0 mm 1 mps 693 mmHg 39%
    17:00 -3°C° 0 mm 1 mps 693 mmHg 43%
    18:00 -4°C° 0 mm 1 mps 693 mmHg 47%
    19:00 -4°C° 0 mm 1 mps 693 mmHg 47%
    20:00 -4°C° 0 mm 1 mps 693 mmHg 47%
    21:00 -6°C° 0 mm 1 mps 693 mmHg 47%
    22:00 -6°C° 0 mm 1 mps 693 mmHg 47%
    23:00 -6°C° 0 mm 1 mps 692 mmHg 46%

    26 January, Sunday

    Time Temperature Precipitation Wind Pressure Humidity
    00:00 -6°C° 0 mm 1 mps 692 mmHg 46%
    01:00 -6°C° 0 mm 1 mps 692 mmHg 47%
    02:00 -7°C° 0 mm 1 mps 692 mmHg 48%
    03:00 -7°C° 0 mm 1 mps 692 mmHg 49%
    04:00 -7°C° 0 mm 1 mps 691 mmHg 49%
    05:00 -7°C° 0 mm 1 mps 691 mmHg 50%
    06:00 -8°C° 0 mm 1 mps 691 mmHg 51%
    07:00 -7°C° 0 mm 0 mps 691 mmHg 47%
    08:00 -6°C° 0 mm 0 mps 692 mmHg 44%
    09:00 -5°C° 0 mm 0 mps 692 mmHg 40%
    10:00 -4°C° 0 mm 0 mps 692 mmHg 38%
    11:00 -2°C° 0 mm 0 mps 691 mmHg 36%
    12:00 -1°C° 0 mm 0 mps 691 mmHg 33%
    13:00 -1°C° 0 mm 0 mps 691 mmHg 33%
    14:00 0°C° 0 mm 0 mps 691 mmHg 32%
    15:00 0°C° 0 mm 0 mps 690 mmHg 32%
    16:00 -1°C° 0 mm 0 mps 690 mmHg 36%
    17:00 -2°C° 0 mm 0 mps 690 mmHg 39%
    18:00 -3°C° 0 mm 0 mps 690 mmHg 43%
    19:00 -3°C° 0 mm 0 mps 690 mmHg 44%
    20:00 -3°C° 0 mm 1 mps 691 mmHg 45%
    21:00 -3°C° 0 mm 1 mps 691 mmHg 46%
    22:00 -3°C° 0 mm 1 mps 691 mmHg 47%
    23:00 -4°C° 0 mm 0 mps 691 mmHg 47%

    27 January, Monday

    Time Temperature Precipitation Wind Pressure Humidity
    00:00 -4°C° 0 mm 0 mps 691 mmHg 48%
    01:00 -4°C° 0 mm 0 mps 691 mmHg 49%
    02:00 -4°C° 0 mm 0 mps 691 mmHg 50%
    03:00 -5°C° 0 mm 0 mps 691 mmHg 50%
    04:00 -5°C° 0 mm 0 mps 691 mmHg 51%
    05:00 -5°C° 0 mm 0 mps 691 mmHg 52%
    06:00 -6°C° 0 mm 0 mps 692 mmHg 53%
    07:00 -4°C° 0 mm 0 mps 692 mmHg 50%
    08:00 -2°C° 0 mm 1 mps 693 mmHg 46%
    09:00 -1°C° 0 mm 1 mps 694 mmHg 43%
    10:00 -1°C° 0 mm 0 mps 694 mmHg 41%
    11:00 +1°C° 0 mm 0 mps 694 mmHg 39%
    12:00 +2°C° 0 mm 0 mps 694 mmHg 37%
    13:00 +4°C° 0 mm 1 mps 694 mmHg 37%
    14:00 +4°C° 0 mm 1 mps 694 mmHg 36%
    15:00 +5°C° 0 mm 1 mps 694 mmHg 36%
    16:00 +3°C° 0 mm 1 mps 695 mmHg 40%
    17:00 +2°C° 0 mm 1 mps 695 mmHg 45%
    18:00 0°C° 0 mm 1 mps 695 mmHg 49%
    19:00 0°C° 0 mm 1 mps 695 mmHg 51%
    20:00 -1°C° 0 mm 1 mps 696 mmHg 52%
    21:00 -2°C° 0 mm 1 mps 696 mmHg 54%
    22:00 -2°C° 0 mm 1 mps 696 mmHg 55%
    23:00 -2°C° 0 mm 1 mps 696 mmHg 56%
    Show more